Retour au catalogue

NAVSTAR 17

USA 49

ActifNavigationMEO
NORAD 20361·PAYLOAD·🇺🇸 United States

Lancé Dec 11, 1989 depuis Cape Canaveral Space Force Station

Loading…

Prochains Passages (prochaines 24 heures)

TLE

FraisSource: Space-Track

Époque: Sep 13, 2026, 06:38 UTC

1 20361U 89097A   26256.27677738 -.00000115  00000-0  00000-0 0  9991
2 20361  56.4177   8.0423 0022015 320.0434  42.3922  1.89176255251023

Suivez NAVSTAR 17 en temps réel avec AllMySat

Download on the App Store